HUBBLE
1 20580U 90037B 09335.75695345 .00000415 00000-0 19004-4 0 4834
2 20580 028.4687 088.6049 0003454 259.9800 100.0422 15.00861827875058
ISS
1 25544U 98067A 09338.08408725 .00014536 00000-0 94189-4 0 1049
2 25544 051.6460 153.7487 0007522 048.4567 051.2042 15.76292799632720
CO-58
1 28895U 05043F 09336.68118465 .00000110 00000-0 32560-4 0 04575
2 28895 098.0384 222.3595 0017749 177.5956 182.5337 14.59820659218315
FALCON
1 30776U 07006E 09337.85312239 .00000427 00000-0 33798-4 0 7143
2 30776 035.4328 149.9268 0002123 315.8072 044.2474 15.03384899150644
MAST
1 31126U 07012K 09337.72417908 -.00000025 00000-0 45488-5 0 7465
2 31126 097.9667 024.5605 0095629 113.3220 247.8060 14.53535376139668
CAPE1
1 31130U 07012P 09337.86099416 -.00000052 00000-0 -15714-5 0 7588
2 31130 097.9690 022.5032 0103704 119.4572 241.7009 14.52110946139311
COMPASS
1 32787U 08021E 09337.74538828 .00000336 00000-0 49328-4 0 5331
2 32787 097.9236 039.9519 0015499 197.9119 162.1550 14.81707537 86553
AAUSAT2
1 32788U 08021F 09336.82110264 .00000537 00000-0 74642-4 0 5262
2 32788 097.9231 039.1249 0015123 202.3075 157.7469 14.81837155 86422
DO-64
1 32789U 08021G 09337.78692969 .00000233 00000-0 36164-4 0 5435
2 32789 097.9287 040.3634 0015345 197.2935 162.7756 14.81875920 86561
CO-66
1 32791U 08021J 09337.20064529 .00000115 00000-0 21436-4 0 5233
2 32791 097.9244 039.4433 0015502 198.6476 161.4161 14.81520340 86438
RS-30
1 32953U 08025A 09336.57397407 .00000010 00000-0 00000 0 0 4670
2 32953 082.4996 151.9307 0018863 169.7148 190.4323 12.43003025 69311
TACSAT-3
1 35001U 09028A 09336.97043651 .00003698 00000-0 96303-4 0 01694
2 35001 040.4574 310.8061 0024417 335.8612 024.1057 15.39708638030361
PHARMSAT
1 35002U 09028B 09335.38292576 .00003477 00000-0 88686-4 0 01556
2 35002 040.4699 319.1963 0027282 328.2990 031.6181 15.40406094030129
HAWKSAT1
1 35003U 09028C 09336.98038454 .00005794 00000-0 13839-3 0 01592
2 35003 040.4648 308.2507 0026657 344.2264 015.7672 15.41586020030390
CP6
1 35004U 09028D 09336.97333558 .00006759 00000-0 15956-3 0 01566
2 35004 040.4654 308.2055 0025647 344.0926 015.9051 15.41779124030388
AEROCUB3
1 35005U 09028E 09336.93467375 .00009264 00000-0 21807-3 0 01632
2 35005 040.4757 309.0194 0026282 341.3177 018.6672 15.41544839030371
DRAGNSAT
1 35690U 09038B 09337.84846737 .00041934 00000-0 14648-3 0 1272
2 35690 051.6362 146.1848 0004750 203.5095 156.5667 15.88848540 20021
POLLUX
1 35693U 09038E 09337.53295321 .00038682 00000-0 14471-3 0 1346
2 35693 051.6373 148.5952 0004325 164.4182 195.6830 15.87504426 19933
CASTOR
1 35694U 09038F 09337.52799177 .00016249 00000-0 75142-4 0 1207
2 35694 051.6392 150.1097 0004668 148.9848 211.1325 15.83684657 19912
METEOR-M
1 35865U 09049A 09337.78241779 .00000176 00000-0 10000-3 0 692
2 35865 098.7887 027.7010 0002165 188.9278 171.1821 14.21827393 10956
